Morrisville, NC

3:52 AM EST on February 24, 2017 (GMT -0500)
Raleigh-Durham International

Weather History for KRDU - February, 2011

Change the Weather History Date:

Monday, February 14, 2011

  Actual Average Record
Temperature  
Mean Temperature 55 °F 44 °F  
Max Temperature 72 °F 55 °F 78 °F (1949)
Min Temperature 38 °F 34 °F -2 °F (1899)
Degree Days  
Heating Degree Days 10 21  
Month to date heating degree days 322 306  
Since 1 July heating degree days 2589 2303  
Cooling Degree Days 0 0  
Month to date cooling degree days 0 0  
Year to date cooling degree days 0 0  
Growing Degree Days 6 (Base 50)    
Moisture  
Dew Point 24 °F    
Average Humidity 36    
Maximum Humidity 59    
Minimum Humidity 12    
Precipitation  
Precipitation 0.00 in 0.11 in 2.29 in (1922)
Month to date precipitation 1.58 1.54  
Year to date precipitation 2.95 5.04  
Snow  
Snow 0.00 in 0.10 in 6.00 in (1913)
Month to date snowfall 0.4 1.1  
Since 1 July snowfall 9.0 4.7  
Snow Depth 0.00 in    
Sea Level Pressure  
Sea Level Pressure 29.93 in    
Wind  
Wind Speed 11 mph (WSW)    
Max Wind Speed 29 mph    
Max Gust Speed 37 mph    
Visibility 10 miles    
Events      
T = Trace of Precipitation, MM = Missing Value Source: NWS Daily Summary

Daily Weather History Graph

Daily Weather History Graph

Search for Another Location

Airport or City:

Trip Planner

Search our weather history database for the weather conditions in past years. The results will help you decide how hot, cold, wet, or windy it might be!

Date:

Astronomy

Feb. 14, 2011 Rise Set
Actual Time 7:03 AM EST 5:55 PM EST
Civil Twilight 6:37 AM EST 6:21 PM EST
Nautical Twilight 6:07 AM EST 6:51 PM EST
Astronomical Twilight 5:37 AM EST 7:21 PM EST
Moon 2:00 PM EST (2/14) 3:59 AM EST (2/14)
Length of Visible Light 11h 44m
Length of Day
10h 51m
Waxing Gibbous, 83% of the Moon is Illuminated
Feb 14
Waxing Gibbous
Feb 18
Full
Feb 24
Last Quarter
Mar 4
New
Mar 12
First Quarter

Hourly Weather History & Observations

Time (EST) Temp. Windchill Dew Point Humidity Pressure Visibility Wind Dir Wind Speed Gust Speed Precip Events Conditions
12:51 AM 45.0 °F 40.1 °F 24.1 °F 44% 30.06 in 10.0 mi SW 9.2 mph - N/A   Clear
1:51 AM 43.0 °F 37.7 °F 25.0 °F 49% 30.04 in 10.0 mi SW 9.2 mph - N/A   Clear
2:51 AM 42.1 °F 36.6 °F 25.0 °F 51% 30.03 in 10.0 mi SW 9.2 mph - N/A   Partly Cloudy
3:51 AM 39.9 °F 33.9 °F 25.0 °F 55% 30.00 in 10.0 mi SW 9.2 mph - N/A   Partly Cloudy
4:51 AM 39.0 °F 32.3 °F 25.0 °F 57% 29.98 in 10.0 mi SW 10.4 mph - N/A   Partly Cloudy
5:51 AM 39.0 °F 31.8 °F 26.1 °F 60% 29.96 in 10.0 mi SW 11.5 mph - N/A   Partly Cloudy
6:51 AM 39.0 °F 32.8 °F 25.0 °F 57% 29.96 in 10.0 mi SW 9.2 mph - N/A   Scattered Clouds
7:51 AM 42.1 °F 36.1 °F 26.1 °F 53% 29.94 in 10.0 mi SW 10.4 mph - N/A   Scattered Clouds
8:51 AM 48.0 °F - 26.1 °F 42% 29.94 in 10.0 mi SW 12.7 mph - N/A   Scattered Clouds
9:51 AM 54.0 °F - 26.1 °F 34% 29.92 in 10.0 mi WSW 13.8 mph - N/A   Scattered Clouds
10:51 AM 59.0 °F - 26.1 °F 28% 29.89 in 10.0 mi WSW 15.0 mph 24.2 mph N/A   Partly Cloudy
11:51 AM 64.9 °F - 26.1 °F 23% 29.88 in 10.0 mi WSW 16.1 mph - N/A   Partly Cloudy
12:51 PM 69.1 °F - 25.0 °F 19% 29.82 in 10.0 mi WSW 17.3 mph 26.5 mph N/A   Partly Cloudy
1:51 PM 70.0 °F - 25.0 °F 18% 29.79 in 10.0 mi WSW 18.4 mph 34.5 mph N/A   Mostly Cloudy
2:51 PM 72.0 °F - 25.0 °F 17% 29.77 in 10.0 mi WSW 13.8 mph 26.5 mph N/A   Scattered Clouds
3:51 PM 71.1 °F - 23.0 °F 16% 29.78 in 10.0 mi West 15.0 mph 28.8 mph N/A   Partly Cloudy
4:51 PM 70.0 °F - 24.1 °F 18% 29.80 in 10.0 mi West 17.3 mph 23.0 mph N/A   Partly Cloudy
5:51 PM 66.9 °F - 12.0 °F 12% 29.86 in 10.0 mi WNW 10.4 mph 24.2 mph N/A   Partly Cloudy
6:51 PM 62.1 °F - 15.1 °F 16% 29.89 in 10.0 mi West 10.4 mph 17.3 mph N/A   Partly Cloudy
7:51 PM 62.1 °F - 15.1 °F 16% 29.92 in 10.0 mi NW 5.8 mph - N/A   Clear
8:51 PM 60.8 °F - 21.2 °F 22% 29.97 in 10.0 mi NW 10.4 mph 20.7 mph N/A   Clear
9:51 PM 55.0 °F - 26.1 °F 33% 30.03 in 10.0 mi NW 11.5 mph 26.5 mph N/A   Clear
10:51 PM 51.1 °F - 26.1 °F 38% 30.07 in 10.0 mi NW 3.5 mph - N/A   Clear
11:51 PM 48.9 °F - 25.0 °F 39% 30.12 in 10.0 mi WNW 4.6 mph - N/A   Clear